Starlink 31131

operational
NORAD ID: 58673 Int'l Des: 2023-211 Owner: SPXS Country: US Constellation: starlink
LEOCIRCULAR

关于 Starlink 31131

正在加载描述...

实时位置

正在加载3D地球...

即将过境

高度历史

Altitude vs Time

uPlot chart will show altitude changes over time

两行轨道根数

1 58673U 23211G 25306.09290554 .00011677 00000-0 43253-3 0 9990
2 58673 43.0062 75.0722 0002815 269.9245 90.1284 15.27630633104355
Epoch: Nov 2, 2025 • Age: 42 hours

当前状态

高度 484.2 km
速度 7.62 km/s
星下点 -13.20°S, 59.59°E
发射日期 Dec 29, 2023
运行时间 1.8 years
类型 internet

技术详情

分类 Payload
质量 730.00 kg
干质量 700.00 kg
总质量 730.00 kg
长度 0.30 m
直径 4.10 m
跨度 29.00 m
形状 Box + pan
制造商 SPXS
平台类型 Starlink V2M
阶段状态 In Orbit
所有者/国家 SPXS/US

大型星座

Loading constellations...